[[{"header":{"parameterUnit":"m.s-1","parameterCategory":1,"la1":30.2991,"la2":30.254,"lo1":-89.0895,"lo2":-89.0444,"dy":0.0017,"dx":0.0017,"nx":28,"ny":28,"refTime":"2023-07-24T21:00:00:Z","depth":0,"parameterNumber":2,"parameterNumberName":"U-component_of_WINDS"},"data":[0,0,0,0,0,0,0,0,0,0,0,0,0,0,0,0,0,0,0,0,0,0,0,0,0,0,0,0,0,0,0,0,0,0,0,0,0,0,0,0,0,0,0,0,0,0,0,0,0,0,0,0,0,0,0,0,0,0,2.7422,2.7423,0,2.7484,2.7485,2.7485,2.7427,2.7424,2.7422,2.742,2.7484,2.7487,2.7491,0,0,0,0,0,0,0,0,0,0,0,0,0,2.7251,2.7255,2.7422,2.7423,2.7423,2.7484,2.7485,2.7485,2.7427,2.7424,2.7421,2.7419,2.7482,2.7487,2.7492,0,0,0,0,0,0,0,0,0,0,0,0,0,2.7321,2.7256,2.7422,2.7402,2.74,2.7484,2.7485,2.7486,2.7428,2.7424,2.7421,2.7417,2.7481,2.7487,2.7492,2.7599,0,0,2.751,2.7513,0,0,0,0,0,0,0,0,2.7317,2.7327,2.7404,2.7403,2.7402,2.7444,2.7448,2.7524,2.7428,2.7417,2.742,2.7416,2.7473,2.748,2.7499,2.7602,2.7604,2.7511,2.7514,2.7517,2.7518,0,0,0,0,0,0,0,2.7312,2.7324,2.7446,2.7405,2.7404,2.7389,2.7395,2.7462,2.7464,2.7418,2.7414,2.7422,2.7472,2.7493,2.75,2.7605,2.751,2.7516,2.7519,2.7522,2.7795,2.7798,0,0,0,0,0,0,2.731,2.732,2.7444,2.7448,2.735,2.7395,2.7401,2.7434,2.7463,2.7464,2.7425,2.7419,2.7485,2.7493,2.7502,2.7626,2.7517,2.7522,2.7525,2.7791,2.7796,2.78,0,0,0,0,0,0,2.7306,2.7321,2.7442,2.7383,2.7397,2.7401,2.7438,2.7437,2.7458,2.7469,2.7469,2.7446,2.7483,2.7494,2.7574,2.7627,2.7525,2.753,2.7787,2.7793,2.7798,2.7877,0,0,0,0,0,0,2.7301,2.732,2.7362,2.7385,2.7401,2.7514,2.7442,2.7441,2.7468,2.7461,2.7489,2.749,2.7481,2.7566,2.758,2.7634,2.7535,2.7782,2.7789,2.7796,2.7869,2.7884,2.7897,0,0,0,0,0,2.7296,2.7382,2.7364,2.7379,2.7452,2.7517,2.7526,2.7514,2.7473,2.7514,2.752,2.7489,2.762,2.7575,2.759,2.7646,2.7778,2.7787,2.7795,2.7863,2.7881,2.7897,0,0,0,0,0,0,2.7366,2.7385,2.7365,2.7462,2.7488,2.7507,2.7559,2.7534,2.7573,2.7565,2.7548,2.7555,2.7639,2.7651,2.7601,2.7749,2.7692,2.7704,2.7738,2.7756,2.777,2.7765,2.7539,0,0,0,0,0,2.7393,2.7445,2.7458,2.7542,2.7556,2.7555,2.7583,2.7571,2.7598,2.7609,2.7621,2.7648,2.7695,2.7726,2.777,2.7871,2.7874,2.7917,2.7931,2.7942,2.7952,2.8003,2.8022,2.7828,2.7827,2.7827,0,0,2.7449,2.7466,2.7499,2.7556,2.7576,2.7628,2.7565,2.7624,2.7663,2.7618,2.7694,2.7704,2.7733,2.7823,2.7863,2.7835,2.8007,2.7953,2.7962,2.7966,2.8014,2.8032,2.8049,2.7833,2.7832,2.7831,0,0,2.7578,2.7596,2.7667,2.7687,2.7716,2.7714,2.7731,2.7753,2.7757,2.7833,2.78,2.7845,2.7927,2.7948,2.7969,2.8102,2.8074,2.8117,2.819,2.824,2.8255,2.8268,2.8314,2.833,2.8128,2.8128,2.8128,0,2.7644,2.7722,2.7706,2.7767,2.7792,2.7752,2.7823,2.7843,2.7885,2.7903,2.7871,2.797,2.7987,2.808,2.8112,2.8132,2.8149,2.8114,2.8254,2.8267,2.828,2.8323,2.834,2.8133,2.8132,2.8132,2.8131,0,2.78,2.7855,2.7908,2.7948,2.798,2.8045,2.8038,2.8071,2.8056,2.8057,2.8133,2.8152,2.8197,2.8218,2.8205,2.8309,2.829,2.8257,2.8199,2.8303,2.8343,2.836,2.814,2.8138,2.8136,2.8135,0,0,2.7977,2.8005,2.8025,2.8041,2.8069,2.8111,2.8173,2.8217,2.8244,2.8274,2.8325,2.8394,2.8361,2.8386,2.8374,2.8418,2.8519,2.8378,2.8378,2.8402,2.8632,2.8656,2.8675,2.8501,2.8504,2.8506,2.8628,0,2.8105,2.8213,2.8199,2.8302,2.8351,2.8313,2.8366,2.8389,2.8391,2.8432,2.8434,2.8482,2.8438,2.8451,2.8493,2.8498,2.8564,2.8489,2.8546,2.8548,2.8539,2.8697,2.8723,2.8838,2.8644,2.8647,2.8649,0,2.8269,2.8303,2.8411,2.8428,2.8447,2.8496,2.8533,2.8574,2.8597,2.8595,2.8621,2.86,2.8661,2.8603,2.8685,2.8634,2.8656,2.8662,2.8666,2.867,2.8604,2.8703,2.8874,2.8891,2.8674,2.8672,2.867,0,2.8384,2.8457,2.853,2.8545,2.8568,2.8602,2.8614,2.8634,2.8659,2.8692,2.8708,2.8748,2.8769,2.8799,2.8789,2.8748,2.8873,2.8814,2.8872,2.8872,2.8899,2.8898,2.9075,2.8917,2.8916,2.8916,2.8916,0,2.8528,2.8595,2.8581,2.8626,2.8699,2.8682,2.8754,2.876,2.8778,2.8822,2.8792,2.8834,2.8819,2.886,2.8852,2.892,2.8931,2.893,2.8927,2.8932,2.8931,2.8945,2.8937,2.8921,2.892,2.8919,2.8918,0,2.8669,2.8663,2.874,2.8754,2.8758,2.8811,2.8823,2.8864,2.8863,2.8919,2.8931,2.893,2.8976,2.8968,2.9021,2.9015,2.9099,2.9087,2.9091,2.9088,2.9145,2.9139,2.9336,2.936,2.9188,2.919,2.9191,0,2.8761,2.8811,2.8829,2.8856,2.8869,2.8914,2.8939,2.8923,2.8951,2.898,2.9017,2.906,2.9094,2.9169,2.9172,2.9211,2.9199,2.9265,2.9204,2.9207,2.9197,2.9194,2.9197,2.9277,2.9279,2.928,2.9282,0,2.8923,2.8916,2.8954,2.8991,2.9021,2.905,2.9075,2.9098,2.9084,2.9117,2.9163,2.9189,2.924,2.9283,2.9318,2.9329,2.9303,2.9301,2.9316,2.9321,2.932,2.9319,2.9122,2.9296,2.9295,2.9294,2.9293,2.9292,2.9041,2.9082,2.9101,2.9143,2.916,2.9183,2.9221,2.9224,2.9262,2.9302,2.929,2.9342,2.9361,2.9406,2.942,2.9459,2.9435,2.9457,2.9462,2.9468,2.9474,2.9314,2.9466,2.9466,2.9465,2.9465,2.9465,0,2.92,2.9209,2.9248,2.9282,2.9315,2.9287,2.9312,2.9341,2.9387,2.9407,2.944,2.9491,2.9531,2.9537,2.9574,2.9605,2.9593,2.9615,2.9612,2.9614,2.9495,2.9477,2.9623,2.9623,2.9623,2.9623,2.9623,2.9623,2.9286,2.9354,2.9349,2.9424,2.9432,2.9482,2.9498,2.9519,2.9534,2.9593,2.9626,2.9628,2.9642,2.968,2.9715,2.9715,2.9729,2.9755,2.9751,2.9639,2.9623,2.9608,2.9591,2.9759,2.9759,2.9867,2.9868,2.9869]},{"header":{"parameterUnit":"m.s-1","parameterCategory":1,"la1":30.2991,"la2":30.254,"lo1":-89.0895,"lo2":-89.0444,"dy":0.0017,"dx":0.0017,"nx":28,"ny":28,"refTime":"2023-07-24T21:00:00:Z","depth":0,"parameterNumber":3,"parameterNumberName":"V-component_of_WINDS"},"data":[0,0,0,0,0,0,0,0,0,0,0,0,0,0,0,0,0,0,0,0,0,0,0,0,0,0,0,0,0,0,0,0,0,0,0,0,0,0,0,0,0,0,0,0,0,0,0,0,0,0,0,0,0,0,0,0,0,0,-0.1956,-0.1956,0,-0.1989,-0.199,-0.199,-0.2011,-0.2011,-0.2011,-0.2011,-0.2045,-0.2046,-0.2046,0,0,0,0,0,0,0,0,0,0,0,0,0,-0.191,-0.191,-0.1956,-0.1956,-0.1957,-0.1989,-0.199,-0.199,-0.2011,-0.2011,-0.2011,-0.2011,-0.2045,-0.2045,-0.2046,0,0,0,0,0,0,0,0,0,0,0,0,0,-0.1935,-0.1911,-0.1956,-0.1971,-0.1973,-0.1989,-0.199,-0.199,-0.2011,-0.2011,-0.2011,-0.2011,-0.2044,-0.2045,-0.2047,-0.2051,0,0,-0.205,-0.2051,0,0,0,0,0,0,0,0,-0.1934,-0.1937,-0.1968,-0.197,-0.1972,-0.1996,-0.1986,-0.2011,-0.2011,-0.1996,-0.2011,-0.2012,-0.2028,-0.2031,-0.2037,-0.2052,-0.2054,-0.205,-0.2051,-0.2052,-0.2052,0,0,0,0,0,0,0,-0.1932,-0.1935,-0.1969,-0.1969,-0.1971,-0.1976,-0.198,-0.1991,-0.2011,-0.1998,-0.1999,-0.2003,-0.2029,-0.2036,-0.2038,-0.2054,-0.205,-0.2051,-0.2052,-0.2052,-0.2076,-0.2076,0,0,0,0,0,0,-0.1928,-0.1934,-0.1968,-0.197,-0.1953,-0.1977,-0.1981,-0.1988,-0.2011,-0.2015,-0.2003,-0.2004,-0.2034,-0.2036,-0.2039,-0.2046,-0.2051,-0.2053,-0.2053,-0.2076,-0.2076,-0.2076,0,0,0,0,0,0,-0.1927,-0.1931,-0.1967,-0.1952,-0.1957,-0.1978,-0.1985,-0.1989,-0.1995,-0.2015,-0.2019,-0.2005,-0.2034,-0.2037,-0.2048,-0.2048,-0.2053,-0.2054,-0.2076,-0.2076,-0.2076,-0.206,0,0,0,0,0,0,-0.1925,-0.193,-0.1931,-0.1952,-0.1958,-0.1975,-0.1985,-0.1989,-0.1997,-0.1999,-0.2018,-0.2022,-0.2034,-0.2046,-0.2049,-0.2049,-0.2055,-0.2077,-0.2076,-0.2076,-0.2061,-0.2059,-0.2058,0,0,0,0,0,-0.1924,-0.1925,-0.1931,-0.1935,-0.196,-0.1975,-0.1978,-0.1993,-0.1997,-0.1999,-0.2012,-0.2021,-0.2047,-0.2047,-0.2051,-0.2051,-0.2077,-0.2076,-0.2076,-0.2061,-0.206,-0.2058,0,0,0,0,0,0,-0.1902,-0.1928,-0.1935,-0.1943,-0.1957,-0.1978,-0.1981,-0.199,-0.2002,-0.2003,-0.2021,-0.2025,-0.2034,-0.2044,-0.2043,-0.2057,-0.2063,-0.2064,-0.205,-0.2049,-0.2048,-0.2045,-0.2056,0,0,0,0,0,-0.1899,-0.1909,-0.193,-0.1935,-0.1942,-0.196,-0.1967,-0.1977,-0.1992,-0.1997,-0.2011,-0.2025,-0.2036,-0.2043,-0.2055,-0.2063,-0.2068,-0.2065,-0.2064,-0.2063,-0.2063,-0.2069,-0.2068,-0.2076,-0.2076,-0.2076,0,0,-0.1891,-0.1906,-0.1911,-0.1932,-0.1943,-0.1953,-0.1965,-0.1974,-0.1982,-0.1999,-0.201,-0.2021,-0.2037,-0.2047,-0.2051,-0.2055,-0.2062,-0.2062,-0.2061,-0.2062,-0.2069,-0.2068,-0.2067,-0.2075,-0.2075,-0.2076,0,0,-0.1882,-0.1895,-0.1901,-0.1913,-0.1931,-0.1943,-0.1945,-0.1965,-0.1974,-0.1985,-0.1999,-0.2008,-0.2027,-0.2039,-0.2047,-0.2046,-0.2055,-0.2049,-0.2042,-0.2048,-0.2048,-0.2047,-0.2048,-0.2047,-0.2049,-0.2049,-0.2049,0,-0.187,-0.1886,-0.1903,-0.1912,-0.1921,-0.1938,-0.1945,-0.1956,-0.1976,-0.1982,-0.1986,-0.2012,-0.2024,-0.2037,-0.2037,-0.2043,-0.2046,-0.2046,-0.2047,-0.2046,-0.2046,-0.2047,-0.2046,-0.2048,-0.2048,-0.2049,-0.2049,0,-0.1871,-0.1882,-0.1885,-0.1905,-0.1915,-0.1923,-0.1941,-0.1949,-0.1959,-0.1972,-0.1984,-0.2,-0.2016,-0.202,-0.2029,-0.2035,-0.2037,-0.2043,-0.2049,-0.2044,-0.2045,-0.2045,-0.2047,-0.2047,-0.2048,-0.2048,0,0,-0.1848,-0.188,-0.188,-0.1891,-0.1913,-0.1922,-0.1931,-0.1947,-0.1954,-0.1968,-0.1977,-0.1994,-0.2001,-0.2011,-0.2022,-0.2027,-0.2026,-0.2033,-0.2034,-0.2032,-0.2035,-0.2029,-0.2029,-0.2033,-0.2033,-0.2033,-0.2033,0,-0.1843,-0.1861,-0.1877,-0.1889,-0.19,-0.1918,-0.1926,-0.1941,-0.1953,-0.1965,-0.1978,-0.199,-0.1998,-0.2004,-0.201,-0.2025,-0.2027,-0.2025,-0.2041,-0.2042,-0.2036,-0.2029,-0.2023,-0.2023,-0.2034,-0.2034,-0.2034,0,-0.1838,-0.1853,-0.1867,-0.189,-0.1895,-0.1902,-0.1919,-0.193,-0.1947,-0.1956,-0.1968,-0.198,-0.1992,-0.1998,-0.2014,-0.2013,-0.2021,-0.2029,-0.203,-0.2031,-0.2037,-0.2031,-0.2023,-0.2023,-0.2034,-0.2034,-0.2034,0,-0.1821,-0.1844,-0.1856,-0.1864,-0.1891,-0.1896,-0.1907,-0.1925,-0.1934,-0.195,-0.1956,-0.1972,-0.1981,-0.1993,-0.201,-0.2013,-0.2026,-0.2032,-0.2034,-0.2033,-0.2035,-0.2035,-0.2028,-0.204,-0.204,-0.204,-0.204,0,-0.1813,-0.1821,-0.1849,-0.1856,-0.1865,-0.1885,-0.1894,-0.1907,-0.1923,-0.1933,-0.1949,-0.1959,-0.198,-0.1993,-0.2006,-0.2018,-0.2022,-0.203,-0.2033,-0.2028,-0.2027,-0.2033,-0.2034,-0.204,-0.204,-0.204,-0.204,0,-0.1795,-0.1814,-0.1828,-0.1853,-0.1859,-0.1865,-0.1887,-0.1895,-0.1909,-0.1922,-0.1926,-0.1948,-0.1964,-0.1982,-0.2003,-0.2012,-0.2024,-0.2029,-0.2018,-0.202,-0.202,-0.202,-0.2017,-0.2018,-0.2029,-0.2029,-0.2029,0,-0.1789,-0.1795,-0.1822,-0.183,-0.1842,-0.1854,-0.1865,-0.1885,-0.1895,-0.1917,-0.1922,-0.1939,-0.1953,-0.1977,-0.1995,-0.2012,-0.2018,-0.2016,-0.202,-0.2016,-0.2018,-0.2018,-0.2019,-0.2014,-0.2014,-0.2014,-0.2014,0,-0.1776,-0.1786,-0.18,-0.1818,-0.183,-0.1845,-0.186,-0.1866,-0.189,-0.19,-0.1916,-0.1928,-0.195,-0.1967,-0.1987,-0.1999,-0.201,-0.2013,-0.2014,-0.2009,-0.2002,-0.2006,-0.2014,-0.2012,-0.2012,-0.2012,-0.2013,-0.2013,-0.1764,-0.1771,-0.1791,-0.1807,-0.1821,-0.1836,-0.1845,-0.1861,-0.1876,-0.1896,-0.1907,-0.1923,-0.1943,-0.197,-0.1982,-0.1996,-0.2,-0.2001,-0.2002,-0.2002,-0.2001,-0.2,-0.1999,-0.1999,-0.1999,-0.1999,-0.1999,0,-0.1752,-0.1767,-0.1781,-0.1803,-0.1816,-0.1827,-0.1845,-0.1855,-0.187,-0.1887,-0.1902,-0.1921,-0.1938,-0.1959,-0.1977,-0.1984,-0.199,-0.1988,-0.1988,-0.1991,-0.1996,-0.1993,-0.1983,-0.1983,-0.1983,-0.1983,-0.1983,-0.1983,-0.1748,-0.1761,-0.1773,-0.1795,-0.1809,-0.1826,-0.1835,-0.185,-0.1864,-0.1885,-0.19,-0.1913,-0.1932,-0.1953,-0.1969,-0.1975,-0.1981,-0.1977,-0.1985,-0.1989,-0.199,-0.1991,-0.1989,-0.1979,-0.1979,-0.1979,-0.1979,-0.1979]}]]